Location: Unspecified
(43.3116°N, 2.0147°W)
Time: 03:48:05
(UTC+02:00)

Okean 3 - Pass Details

Date: 10 July 2022
Orbit: 573 x 599 km, 82.5° (Epoch: 17 August)

Event Time Altitude Azimuth Distance (km) Brightness Sun altitude
Rises 05:49:46 0° 359° (N) 2,809 7.6 -7.8°
Reaches altitude 10° 05:52:07 10° 9° (N) 1,900 6.9 -7.5°
Maximum altitude 05:56:00 36° 76° (ENE) 931 5.2 -6.9°
Drops below altitude 10° 05:59:49 10° 144° (SE) 1,877 6.0 -6.4°
Sets 06:02:07 0° 153° (SSE) 2,768 6.8 -6.1°
